Tracking 18850 objects as of 22-Nov-2017
HD Live streaming from Space Station
objects crossing your sky now

FENGYUN 1C DEB

Track FENGYUN 1C DEB now!
10-day predictions


NORAD ID: 30813
Int'l Code: 1999-025AUX
Perigee: 617.5 km
Apogee: 701.9 km
Inclination: 98.9 °
Period: 97.8 minutes
Semi major axis: 7030 km
RCS: 0.0204 m2 (small)
Launch date: May 10, 1999
Source: People's Republic of China (PRC)
Launch site: Taiyaun Space Center, China (TSC)

Note: This is SATELLITE DEBRIS
aabbcc
Your satellite tracking list
Your tracking list is empty




NASA's NSSDC Master Catalog

Two Line Element Set (TLE):
1 30813U 99025AUX 17326.27527251  .00005602  00000-0  86312-3 0  9996
2 30813  98.9055 227.2844 0060025  12.9262 347.3465 14.72674415567176
Source of the keplerian elements: AFSPC